Feng Yun 2B

operational
NORAD ID: 26382 Int'l Des: 2000-032 Owner: NSMC Country: CN
HEOCIRCULAR

About Feng Yun 2B

Description loading...

Live Position

Loading 3D Globe...

Upcoming Passes

Altitude History

Altitude vs Time

uPlot chart will show altitude changes over time

Two-Line Element Set

1 26382U 00032A 26062.02364348 .00000116 00000-0 00000+0 0 9999
2 26382 13.1670 17.6833 0004024 293.3701 257.3455 1.00079742 93861
Epoch: Mar 3, 2026 • Age: 25 hours

Current Status

Altitude 35841.8 km
Velocity 3.07 km/s
Sub-Earth Point -4.43°S, 37.87°E
Launch Date Jun 25, 2000
Age 25.6 years
Type other

Technical Details

Classification Payload
Mass 651.00 kg
Dry Mass 600.00 kg
Total Mass 651.00 kg
Length 3.00 m
Diameter 2.10 m
Span 3.00 m
Shape Cyl
Manufacturer SISE
Bus Type FY-2
Phase Status In Orbit
Owner/State NSMC/CN

Large Constellations

Loading constellations...